Location: *
(40.7873°S, 98.7174°E)
Time: 13:38:37
(UTC+00:00)

USA 281 - Visible Passes

Search period start: 26 September 2022 00:00
Search period end: 06 October 2022 00:00
Orbit: 1078 x 1081 km, 106.0° (Epoch: 22 September)

Date Brightness Start Highest point End Pass type
(mag) Time Alt. Az. Time Alt. Az. Time Alt. Az.
26 Sep 5.2 17:42:11 10° S 17:44:19 21° S 17:44:19 21° S visible
27 Sep 5.4 16:52:16 10° SSE 16:53:39 17° SSE 16:53:39 17° SSE visible
27 Sep 5.3 18:37:59 10° S 18:40:31 18° SSW 18:40:31 18° SSW visible
28 Sep 5.1 17:47:25 10° S 17:49:51 23° S 17:49:51 23° S visible
29 Sep 5.3 16:57:30 10° SSE 16:59:11 19° SSE 16:59:11 19° SSE visible
29 Sep 5.2 18:43:15 10° S 18:46:04 18° SSW 18:46:04 18° SSW visible
30 Sep 5.6 16:08:19 10° SE 16:08:31 11° SE 16:08:31 11° SE visible
30 Sep 5.0 17:52:41 10° S 17:55:24 25° S 17:55:24 25° S visible
01 Oct 5.2 17:02:46 10° SSE 17:04:44 21° SSE 17:04:44 21° SSE visible
01 Oct 5.1 18:48:30 10° S 18:51:36 19° SSW 18:51:36 19° SSW visible
02 Oct 5.6 16:13:33 10° SE 16:14:04 12° SE 16:14:04 12° SE visible
02 Oct 4.9 17:57:56 10° S 18:00:56 26° S 18:00:56 26° S visible
03 Oct 5.1 17:08:00 10° SSE 17:10:16 23° SSE 17:10:16 23° SSE visible
03 Oct 5.1 18:53:46 10° S 18:57:09 19° SSW 18:57:09 19° SSW visible
04 Oct 5.5 16:18:48 10° SE 16:19:36 14° SE 16:19:36 14° SE visible
04 Oct 4.8 18:03:10 10° S 18:06:29 28° S 18:06:29 28° S visible
05 Oct 5.0 17:13:15 10° SSE 17:15:49 26° SSE 17:15:49 26° SSE visible
05 Oct 5.0 18:59:01 10° S 19:02:41 20° SW 19:02:41 20° SW visible
